THORAD AGENA D DEB

Satellite information

Favourite Embed

Satellite Type and Status

DEBRISIN ORBIT

Key statistics

Satellite THORAD AGENA D DEB at a glance.

Uptime

20288

Days in orbit

Revolutions

≈ 14.0

Per day

Orbit

SSO

Sun Synchronous Orbit

Inclination

100.0

Latest

Satellite identification and parameters

Extended collection of information and parameters for THORAD AGENA D DEB.

Object identification

Identified? True

Debris? True

Object name: THORAD AGENA D DEB

International designator: 1970-025MR

Object number (NORAD): 6014

Object ID (CCSDS): 6014

Country: UNITED STATES OF AMERICA (US)

Current information (Y/N): Y

RCS size: SMALL

Orbital parameters

Period: 102.566 minutes

Inclination: 100.0222 deg

SMA: 7258.182 km

Apoapsis: 916.906 km

Periapsis: 843.188 km

RAAN: 31.3349 deg

Eccentricy: 0.00507828

Argument of periapsis: 63.945 deg

Mean anomaly: 296.6928 deg

Mean motion: 14.03980312 rev/day

Mean motion (dot): 0.00003491 rev/day2

B* drag term: 0.0022153336 1/REarth

Two-line elements (TLE)

Creation date: Oct. 23, 2025, 6:40 p.m.

Reference frame: TEME

Reference center: EARTH

Epoch: Oct. 23, 2025, 5:06 a.m. UTC

TLE line 0: 0 THORAD AGENA D DEB

TLE line 1: 1 06014U 70025MR 25296.21290777 .00003491 00000-0 22153-2 0 9996

TLE line 2: 2 06014 100.0222 31.3349 0050783 63.9450 296.6928 14.03980312785770

Live tracking on map

Real-time ground track for satellite THORAD AGENA D DEB.

In-orbit conjunctions

A list of the most updated potential collisions computed for object THORAD AGENA D DEB.

Target Orbit TCA Probability of collision Miss distance Type
CZ-6A DEB SSO 2024-11-14 12:35:25 0.0001698614 931.0 (m) DEBRIS
GGSE 1 (GGRS) LEO 2024-07-20 04:30:47 0.0002128159 552.0 (m) PAYLOAD

Associated space launch

Meteorological research and development satellite

THORAD AGENA D DEB was lifted into orbit during the mission ‘Thorad SLV-2G Agena D | Nimbus 4’, on board a Thorad SLV-2G Agena D space rocket.

The launch took place on April 8, 1970, 8:17 a.m. from Space Launch Complex 2E.

For more information about the launch, click the button.

Launch to space Thorad SLV-2G Agena D | Nimbus 4
Thorad SLV-2G Agena D | Nimbus 4

Agency: N/A

Status: Launch Successful

Launch date: April 8, 1970, 8:17 a.m. UTC

Rocket: Thorad SLV-2G Agena D

Launch pad: Space Launch Complex 2E

Location: Vandenberg SFB, CA, USA

...

Latest news about this satellite

There are no fresh news available about this satellite. Check back as we update our databases every day.


Newsletter sign-up

Weekly statistics, charts and insights to help you stay on top of the space industry.